Weather History for Salina, KS

Change the Weather History Date:

Wednesday, May 15, 2013

  Actual Average Record
Temperature  
Mean Temperature 73 °F 65 °F  
Max Temperature 86 °F 76 °F 93 °F (2001)
Min Temperature 59 °F 54 °F 25 °F (1907)
Degree Days  
Heating Degree Days 0 3  
Month to date heating degree days 120 67  
Since 1 July heating degree days 4910 4835  
Cooling Degree Days 8 3  
Month to date cooling degree days 21 31  
Year to date cooling degree days 36 56  
Growing Degree Days 24 (Base 50)    
Moisture  
Dew Point 58 °F    
Average Humidity 65    
Maximum Humidity 90    
Minimum Humidity 40    
Precipitation  
Precipitation 0.00 in 0.15 in 1.55 in (1957)
Month to date precipitation 2.39 2.05  
Year to date precipitation 8.61 9.29  
Sea Level Pressure  
Sea Level Pressure 29.79 in    
Wind  
Wind Speed 11 mph (South)    
Max Wind Speed 20 mph    
Max Gust Speed 26 mph    
Visibility 10 miles    
Events      
T = Trace of Precipitation, MM = Missing Value Source: NWS Daily Summary

Daily Weather History Graph

Daily Weather History Graph

Search for Another Location

Airport:

Trip Planner

Search our weather history database for the weather conditions in past years. The results will help you decide how hot, cold, wet, or windy it might be!

Date:

Astronomy

May. 15, 2013 Rise Set
Actual Time 6:18 AM CDT 8:36 PM CDT
Civil Twilight 5:48 AM CDT 9:06 PM CDT
Nautical Twilight 5:11 AM CDT 9:43 PM CDT
Astronomical Twilight 4:30 AM CDT 10:24 PM CDT
Moon 10:54 AM CDT (5/15) 12:23 AM CDT (5/15)
Length of Visible Light 15h 18m
Length of Day
14h 18m
Waxing Crescent, 27% of the Moon is Illuminated
May 15
Waxing Crescent
May 17
First Quarter
May 24
Full
May 31
Last Quarter
Jun 8
New

Hourly Weather History & Observations

Time (CDT) Temp. Heat Index Dew Point Humidity Pressure Visibility Wind Dir Wind Speed Gust Speed Precip Events Conditions
12:53 AM 72.0 °F - 54.0 °F 53% 29.78 in 10.0 mi South 17.3 mph 26.5 mph N/A   Clear
1:53 AM 72.0 °F - 54.0 °F 53% 29.78 in 10.0 mi South 17.3 mph 24.2 mph N/A   Clear
2:53 AM 71.1 °F - 54.0 °F 55% 29.77 in 10.0 mi South 16.1 mph - N/A   Clear
3:53 AM 69.1 °F - 55.0 °F 61% 29.77 in 10.0 mi South 12.7 mph - N/A   Clear
4:53 AM 66.9 °F - 55.0 °F 66% 29.78 in 10.0 mi South 11.5 mph - N/A   Clear
5:53 AM 64.0 °F - 55.0 °F 73% 29.78 in 10.0 mi South 9.2 mph - N/A   Clear
6:53 AM 64.0 °F - 55.0 °F 73% 29.78 in 10.0 mi South 11.5 mph - N/A   Clear
7:53 AM 66.9 °F - 55.0 °F 66% 29.80 in 10.0 mi South 13.8 mph 21.9 mph N/A   Clear
8:53 AM 72.0 °F - 55.9 °F 57% 29.83 in 10.0 mi SSW 9.2 mph - N/A   Clear
9:53 AM 75.9 °F - 57.0 °F 52% 29.82 in 10.0 mi SSW 10.4 mph - N/A   Clear
10:53 AM 80.1 °F 80.2 °F 55.9 °F 43% 29.81 in 10.0 mi South 11.5 mph - N/A   Clear
11:53 AM 82.0 °F 82.1 °F 59.0 °F 45% 29.80 in 10.0 mi South 12.7 mph 18.4 mph N/A   Clear
12:53 PM 82.9 °F 82.8 °F 59.0 °F 44% 29.79 in 10.0 mi South 11.5 mph - N/A   Clear
1:53 PM 84.9 °F 84.8 °F 60.1 °F 43% 29.78 in 10.0 mi SSE 18.4 mph 24.2 mph N/A   Clear
2:53 PM 84.0 °F 84.0 °F 60.1 °F 44% 29.78 in 10.0 mi South 12.7 mph 21.9 mph N/A   Clear
3:53 PM 84.9 °F 84.2 °F 57.9 °F 40% 29.77 in 10.0 mi South 12.7 mph - N/A   Clear
4:53 PM 82.0 °F 83.8 °F 64.9 °F 56% 29.75 in 10.0 mi South 11.5 mph - N/A   Clear
5:53 PM 79.0 °F - 64.0 °F 60% 29.77 in 10.0 mi South 9.2 mph - N/A   Clear
6:53 PM 75.0 °F - 63.0 °F 66% 29.78 in 10.0 mi South 15.0 mph - N/A   Clear
7:53 PM 73.0 °F - 61.0 °F 66% 29.78 in 10.0 mi South 6.9 mph - N/A   Clear
8:53 PM 69.1 °F - 62.1 °F 78% 29.78 in 10.0 mi South 5.8 mph - N/A   Clear
9:53 PM 66.0 °F - 60.1 °F 81% 29.81 in 10.0 mi SSE 9.2 mph - N/A   Clear
10:53 PM 64.9 °F - 59.0 °F 81% 29.83 in 10.0 mi SSE 8.1 mph - N/A   Clear
11:53 PM 61.0 °F - 57.0 °F 87% 29.83 in 10.0 mi South 4.6 mph - N/A   Clear